GW2591 Weather Reports


time (UTC)temp
F
wind
direction
speed
knots
gust
knots
rain 1hr
in
rain 24hr
in
rain mn
in
humidity
%
barometer
mb
20260503233515 52 233 7.8 23.5 0.00 0.00 0.00 56 1011.6
20260503233011 52 221 6.1 12.2 0.00 0.00 0.00 58 1011.9
20260503232509 52 219 7.0 13.9 0.00 0.00 0.00 56 1011.7
20260503232006 53 229 7.8 13.9 0.00 0.00 0.00 57 1011.8
20260503231504 53 225 9.6 16.5 0.00 0.00 0.00 57 1011.8
20260503231000 53 234 8.7 22.6 0.00 0.00 0.00 57 1011.9
20260503230457 53 209 19.1 20.0 0.00 0.00 0.00 57 1011.7
20260503225954 53 211 6.1 15.6 0.00 0.00 0.00 56 1011.7
20260503225451 54 222 9.6 21.7 0.00 0.00 0.00 56 1011.9
20260503224946 55 230 20.9 26.9 0.00 0.00 0.00 54 1011.7
20260503224444 55 238 16.5 29.5 0.00 0.00 0.00 55 1011.7
20260503223942 55 241 28.7 34.8 0.00 0.00 0.00 55 1011.8
20260503223439 55 250 18.2 31.3 0.00 0.00 0.00 55 1011.6
20260503222934 55 239 22.6 33.9 0.00 0.00 0.00 54 1011.5
20260503222433 57 245 22.6 26.1 0.00 0.00 0.00 50 1011.6
20260503221931 59 250 19.1 25.2 0.00 0.00 0.00 35 1011.4
20260503221429 59 221 13.9 17.4 0.00 0.00 0.00 34 1011.3
20260503220926 59 241 26.1 26.1 0.00 0.00 0.00 34 1011.4
20260503220422 59 249 16.5 18.2 0.00 0.00 0.00 33 1011.1
20260503215919 59 218 6.1 19.1 0.00 0.00 0.00 32 1011.4
20260503215416 59 250 7.8 16.5 0.00 0.00 0.00 33 1011.4
20260503214914 59 240 9.6 21.7 0.00 0.00 0.00 32 1011.2
20260503214411 59 252 15.6 29.5 0.00 0.00 0.00 33 1011.3
20260503213908 60 221 7.8 30.4 0.00 0.00 0.00 33 1011.4
20260503213406 60 215 14.8 27.8 0.00 0.00 0.00 32 1011.4
20260503212902 60 230 5.2 19.1 0.00 0.00 0.00 33 1011.4
20260503212400 59 221 17.4 20.0 0.00 0.00 0.00 32 1011.5
20260503211857 60 227 7.8 17.4 0.00 0.00 0.00 32 1011.5
20260503211354 60 239 6.1 19.1 0.00 0.00 0.00 32 1011.7
20260503210849 60 223 13.0 26.9 0.00 0.00 0.00 30 1011.6
20260503210347 60 212 13.0 21.7 0.00 0.00 0.00 31 1011.7
20260503205841 60 229 20.0 26.9 0.00 0.00 0.00 30 1011.8
20260503205339 60 232 16.5 26.9 0.00 0.00 0.00 31 1011.9
20260503204835 60 213 19.1 30.4 0.00 0.00 0.00 29 1011.7
20260503204332 60 219 17.4 23.5 0.00 0.00 0.00 30 1011.9
20260503203829 60 240 9.6 23.5 0.00 0.00 0.00 30 1011.9
20260503203327 60 236 19.1 30.4 0.00 0.00 0.00 33 1011.9
20260503202823 60 227 12.2 20.9 0.00 0.00 0.00 30 1012.1
20260503202322 60 224 12.2 17.4 0.00 0.00 0.00 32 1012.0
20260503201820 60 226 13.9 33.9 0.00 0.00 0.00 29 1012.0
20260503201316 60 233 9.6 19.1 0.00 0.00 0.00 34 1012.1
20260503200814 60 249 11.3 26.1 0.00 0.00 0.00 32 1012.2
20260503200309 60 259 7.8 26.1 0.00 0.00 0.00 31 1012.2
20260503195807 60 232 16.5 25.2 0.00 0.00 0.00 31 1012.3
20260503195304 60 217 10.4 28.7 0.00 0.00 0.00 31 1012.3
20260503194801 61 224 8.7 27.8 0.00 0.00 0.00 29 1012.3
20260503194256 60 244 12.2 26.9 0.00 0.00 0.00 32 1012.5
20260503193753 59 226 17.4 22.6 0.00 0.00 0.00 30 1012.4
20260503193249 60 238 17.4 26.9 0.00 0.00 0.00 33 1012.6
20260503192745 60 242 7.0 21.7 0.00 0.00 0.00 33 1012.6
20260503192240 60 211 22.6 22.6 0.00 0.00 0.00 30 1012.6
20260503191737 60 221 14.8 24.3 0.00 0.00 0.00 29 1012.7
20260503191234 60 221 11.3 24.3 0.00 0.00 0.00 30 1012.9
20260503190731 60 219 7.8 23.5 0.00 0.00 0.00 32 1012.7
20260503190228 59 196 9.6 24.3 0.00 0.00 0.00 32 1012.8
20260503185725 60 227 8.7 26.9 0.00 0.00 0.00 31 1013.0
20260503185221 60 233 16.5 22.6 0.00 0.00 0.00 32 1013.0
20260503184715 60 230 12.2 16.5 0.00 0.00 0.00 28 1013.0
20260503184212 60 256 7.0 23.5 0.00 0.00 0.00 31 1013.2
20260503183708 60 231 7.8 24.3 0.00 0.00 0.00 31 1013.1
20260503183206 60 245 11.3 19.1 0.00 0.00 0.00 35 1013.2
20260503182704 60 235 7.8 19.1 0.00 0.00 0.00 31 1013.5
20260503182202 60 212 14.8 26.1 0.00 0.00 0.00 28 1013.3
20260503181658 60 212 19.1 22.6 0.00 0.00 0.00 30 1013.5
20260503181155 60 237 18.2 19.1 0.00 0.00 0.00 31 1013.6
20260503180652 59 228 12.2 23.5 0.00 0.00 0.00 30 1013.6
20260503180150 59 226 13.0 26.9 0.00 0.00 0.00 31 1013.5
20260503175647 60 237 10.4 26.1 0.00 0.00 0.00 29 1013.6
20260503175144 59 223 10.4 26.9 0.00 0.00 0.00 30 1013.8
20260503174640 59 235 6.1 32.2 0.00 0.00 0.00 30 1013.8
20260503174138 59 216 13.0 27.8 0.00 0.00 0.00 29 1013.9
20260503173632 59 246 13.9 19.1 0.00 0.00 0.00 32 1013.8
20260503173130 59 228 15.6 23.5 0.00 0.00 0.00 31 1014.1
20260503172627 59 225 20.0 26.9 0.00 0.00 0.00 32 1013.8
20260503172124 59 233 8.7 27.8 0.00 0.00 0.00 38 1013.9
20260503171620 59 264 13.0 26.1 0.00 0.00 0.00 35 1014.2
20260503171117 58 265 15.6 21.7 0.00 0.00 0.00 34 1014.1
20260503170615 59 223 6.1 26.1 0.00 0.00 0.00 33 1014.3
20260503170111 59 262 15.6 23.5 0.00 0.00 0.00 34 1014.4
20260503151006 54 254 5.2 22.6 0.00 0.00 0.00 44 1015.5
20260503150503 54 245 17.4 19.1 0.00 0.00 0.00 44 1015.3
20260503131356 48 233 14.8 26.1 0.00 0.00 0.00 49 1015.7
20260503130853 47 235 11.3 18.2 0.00 0.00 0.00 53 1015.7
20260503130350 47 231 6.1 17.4 0.00 0.00 0.00 50 1015.7
20260503110738 37 202 5.2 7.0 0.00 0.00 0.00 67 1015.7
20260503110235 37 198 2.6 5.2 0.00 0.00 0.00 67 1015.6
20260503100201 37 204 7.0 7.0 0.00 0.00 0.00 67 1015.4
20260503090121 36 188 3.5 6.1 0.00 0.00 0.00 69 1015.5
20260503081556 37 182 1.7 4.3 0.00 0.00 0.00 68 1015.7
20260503081054 37 199 2.6 5.2 0.00 0.00 0.00 68 1015.8
20260503080549 37 174 1.7 3.5 0.00 0.00 0.00 68 1015.9
20260503072523 37 189 3.5 4.3 0.00 0.00 0.00 69 1015.7
20260503072020 37 198 2.6 4.3 0.00 0.00 0.00 67 1016.0
20260503071517 37 185 2.6 4.3 0.00 0.00 0.00 68 1016.0
20260503071014 37 190 3.5 4.3 0.00 0.00 0.00 68 1015.9
20260503070511 37 194 3.5 5.2 0.00 0.00 0.00 68 1016.0
20260503054923 38 185 2.6 4.3 0.00 0.00 0.00 66 1016.3
20260503054419 38 182 1.7 4.3 0.00 0.00 0.00 66 1016.1
20260503053917 38 158 0.9 3.5 0.00 0.00 0.00 66 1016.2
20260503053415 39 198 2.6 4.3 0.00 0.00 0.00 65 1016.1
20260503052911 39 192 3.5 4.3 0.00 0.00 0.00 65 1016.2
20260503052408 39 198 2.6 6.1 0.00 0.00 0.00 64 1016.3
20260503051904 39 188 2.6 6.1 0.00 0.00 0.00 65 1016.3
20260503051400 39 190 4.3 5.2 0.00 0.00 0.00 64 1016.1
20260503050857 39 195 2.6 4.3 0.00 0.00 0.00 64 1016.1
20260503050353 39 185 2.6 4.3 0.00 0.00 0.00 64 1016.5
20260503045851 39 196 2.6 3.5 0.00 0.00 0.00 64 1016.3
20260503045349 39 187 2.6 4.3 0.00 0.00 0.00 64 1016.4
20260503044845 39 206 3.5 4.3 0.00 0.00 0.00 64 1016.4
20260503044342 39 187 2.6 4.3 0.00 0.00 0.00 64 1016.2
20260503043839 39 198 2.6 4.3 0.00 0.00 0.00 64 1016.3
20260503043336 39 191 2.6 5.2 0.00 0.00 0.00 64 1016.2
20260503042833 40 186 2.6 5.2 0.00 0.00 0.00 63 1016.2
20260503042329 40 181 3.5 5.2 0.00 0.00 0.00 63 1016.3
20260503041825 40 189 3.5 5.2 0.00 0.00 0.00 63 1016.3
20260503041322 40 183 2.6 5.2 0.00 0.00 0.00 63 1016.1
20260503040820 40 186 4.3 5.2 0.00 0.00 0.00 63 1016.3
20260503040317 40 184 2.6 4.3 0.00 0.00 0.00 64 1016.2
20260503035814 40 170 2.6 4.3 0.00 0.00 0.00 64 1016.5
20260503035311 41 181 2.6 5.2 0.00 0.00 0.00 63 1016.3
20260503034808 41 190 3.5 4.3 0.00 0.00 0.00 64 1016.4
20260503034305 41 183 2.6 5.2 0.00 0.00 0.00 64 1016.2
20260503033803 41 202 2.6 4.3 0.00 0.00 0.00 64 1016.2
20260503033300 41 183 2.6 4.3 0.00 0.00 0.00 64 1016.4
20260503032758 41 182 2.6 4.3 0.00 0.00 0.00 63 1016.3
20260503032257 41 191 2.6 4.3 0.00 0.00 0.00 63 1016.4
20260503031753 41 189 2.6 4.3 0.00 0.00 0.00 63 1016.3
20260503031252 41 186 3.5 4.3 0.00 0.00 0.00 64 1016.4
20260503030747 42 197 3.5 6.1 0.00 0.00 0.00 63 1016.3
20260503030244 42 174 2.6 5.2 0.00 0.00 0.00 62 1016.6
20260503025741 42 180 1.7 3.5 0.00 0.00 0.00 60 1016.4
20260503025238 42 170 3.5 4.3 0.00 0.00 0.00 60 1016.5
20260503024735 42 174 2.6 4.3 0.00 0.00 0.00 58 1016.5
20260503024232 42 180 2.6 4.3 0.00 0.00 0.00 58 1016.5
20260503023729 42 162 1.7 3.5 0.00 0.00 0.00 59 1016.5
20260503023226 42 190 2.6 4.3 0.00 0.00 0.00 59 1016.5
20260503022722 42 130 1.7 3.5 0.00 0.00 0.00 58 1016.5
20260503022222 43 180 2.6 3.5 0.00 0.00 0.00 57 1016.6
20260503021720 43 169 1.7 4.3 0.00 0.00 0.00 56 1016.6
20260503021215 43 174 1.7 3.5 0.00 0.00 0.00 56 1016.5
20260503020713 43 180 1.7 3.5 0.00 0.00 0.00 56 1016.4
20260503020211 43 176 2.6 4.3 0.00 0.00 0.00 56 1016.4
20260503015707 43 177 1.7 4.3 0.00 0.00 0.00 57 1016.6
20260503015204 42 158 1.7 2.6 0.00 0.00 0.00 60 1016.5
20260503014700 43 89 0.0 1.7 0.00 0.00 0.00 60 1016.3
20260503014158 43 141 0.0 2.6 0.00 0.00 0.00 57 1016.5
20260503013655 43 107 0.9 3.5 0.00 0.00 0.00 57 1016.4
20260503013153 43 164 0.9 2.6 0.00 0.00 0.00 54 1016.3
20260503012650 43 165 1.7 2.6 0.00 0.00 0.00 53 1016.3
20260503012147 44 170 0.9 2.6 0.00 0.00 0.00 52 1016.4
20260503011643 43 173 1.7 2.6 0.00 0.00 0.00 55 1016.5
20260503011140 43 154 2.6 2.6 0.00 0.00 0.00 55 1016.4
20260503010636 44 168 1.7 2.6 0.00 0.00 0.00 54 1016.4
20260503010134 44 179 1.7 2.6 0.00 0.00 0.00 56 1016.3
20260503005631 44 174 1.7 2.6 0.00 0.00 0.00 57 1016.3
20260503005128 44 175 0.9 2.6 0.00 0.00 0.00 55 1016.3
20260503004624 44 170 0.9 2.6 0.00 0.00 0.00 55 1016.4
20260503004123 45 223 0.0 1.7 0.00 0.00 0.00 55 1016.2
20260503003619 45 191 0.9 1.7 0.00 0.00 0.00 53 1016.4
20260503003116 45 281 0.9 1.7 0.00 0.00 0.00 50 1016.1
20260503002613 45 253 1.7 2.6 0.00 0.00 0.00 52 1016.1
20260503002110 45 274 1.7 2.6 0.00 0.00 0.00 55 1016.2
20260503001606 46 277 2.6 4.3 0.00 0.00 0.00 49 1016.2
20260503001103 46 10 0.0 2.6 0.00 0.00 0.00 44 1016.1
20260503000601 46 345 2.6 2.6 0.00 0.00 0.00 43 1016.2
20260503000058 46 337 2.6 3.5 0.00 0.00 0.00 46 1016.1
20260502235554 46 321 1.7 4.3 0.00 0.00 0.00 46 1016.2
20260502235052 46 286 1.7 4.3 0.00 0.00 0.00 45 1016.2
20260502234548 46 29 0.0 4.3 0.00 0.00 0.00 46 1016.1
20260502234046 46 272 0.9 4.3 0.00 0.00 0.00 47 1016.1